Time,TemperatureF,DewpointF,PressureIn,WindDirection,WindDirectionDegrees,WindSpeedMPH,WindSpeedGustMPH,Humidity,HourlyPrecipIn,Conditions,Clouds,dailyrainin,SolarRadiationWatts/m^2,SoftwareType,DateUTC
2013-04-01 00:02:00,40.1,23.4,29.97,North,-999,7.0,12.0,51,0.00,,,0.00,0.00,VWS V14.01,2013-04-01 06:02:00,
2013-04-01 00:07:00,40.0,23.8,29.97,North,-999,7.0,12.0,52,0.00,,,0.00,0.00,VWS V14.01,2013-04-01 06:07:00,
2013-04-01 00:12:00,40.0,23.8,29.97,North,-999,6.0,10.0,52,0.00,,,0.00,0.00,VWS V14.01,2013-04-01 06:12:00,
2013-04-01 00:17:00,39.9,23.7,29.97,North,-999,6.0,10.0,52,0.00,,,0.00,0.00,VWS V14.01,2013-04-01 06:17:00,
2013-04-01 00:22:00,39.9,23.7,29.97,North,-999,9.0,10.0,52,0.00,,,0.00,0.00,VWS V14.01,2013-04-01 06:22:00,
2013-04-01 00:27:00,39.8,23.6,29.97,North,-999,5.0,10.0,52,0.00,,,0.00,0.00,VWS V14.01,2013-04-01 06:27:00,
2013-04-01 00:32:00,39.6,23.4,29.97,North,-999,1.0,9.0,52,0.00,,,0.00,0.00,VWS V14.01,2013-04-01 06:32:00,
2013-04-01 00:37:00,39.2,23.1,29.98,North,-999,3.0,9.0,52,0.00,,,0.00,0.00,VWS V14.01,2013-04-01 06:37:00,
2013-04-01 00:42:00,39.1,23.0,29.97,North,-999,6.0,9.0,52,0.00,,,0.00,0.00,VWS V14.01,2013-04-01 06:42:00,
2013-04-01 00:47:00,38.7,23.1,29.97,North,-999,2.0,9.0,53,0.00,,,0.00,0.00,VWS V14.01,2013-04-01 06:47:00,
2013-04-01 00:52:00,38.2,22.6,29.97,North,-999,2.0,2.0,53,0.00,,,0.00,0.00,VWS V14.01,2013-04-01 06:52:00,
2013-04-01 00:57:00,38.2,23.0,29.97,North,-999,6.0,8.0,54,0.00,,,0.00,0.00,VWS V14.01,2013-04-01 06:57:00,
2013-04-01 01:02:00,38.4,23.2,29.97,North,-999,4.0,8.0,54,0.00,,,0.00,0.00,VWS V14.01,2013-04-01 07:02:00,
2013-04-01 01:07:00,38.4,22.8,29.98,North,-999,7.0,8.0,53,0.00,,,0.00,0.00,VWS V14.01,2013-04-01 07:07:00,
2013-04-01 01:12:00,38.4,22.8,29.98,North,-999,6.0,7.0,53,0.00,,,0.00,0.00,VWS V14.01,2013-04-01 07:12:00,
2013-04-01 01:17:00,38.3,22.7,29.98,North,-999,8.0,10.0,53,0.00,,,0.00,0.00,VWS V14.01,2013-04-01 07:17:00,
2013-04-01 01:22:00,38.5,22.9,29.98,North,-999,7.0,10.0,53,0.00,,,0.00,0.00,VWS V14.01,2013-04-01 07:22:00,
2013-04-01 01:27:00,38.7,22.6,29.97,North,-999,5.0,10.0,52,0.00,,,0.00,0.00,VWS V14.01,2013-04-01 07:27:00,
2013-04-01 01:32:00,38.9,22.8,29.97,North,-999,7.0,10.0,52,0.00,,,0.00,0.00,VWS V14.01,2013-04-01 07:32:00,
2013-04-01 01:37:00,39.4,23.2,29.97,North,-999,5.0,10.0,52,0.00,,,0.00,0.00,VWS V14.01,2013-04-01 07:37:00,
2013-04-01 01:42:00,39.6,23.0,29.97,North,-999,8.0,8.0,51,0.00,,,0.00,0.00,VWS V14.01,2013-04-01 07:42:00,
2013-04-01 01:47:00,39.5,22.9,29.97,North,-999,5.0,9.0,51,0.00,,,0.00,0.00,VWS V14.01,2013-04-01 07:47:00,
2013-04-01 01:52:00,39.3,22.7,29.97,North,-999,6.0,7.0,51,0.00,,,0.00,0.00,VWS V14.01,2013-04-01 07:52:00,
2013-04-01 01:57:00,39.1,23.0,29.97,North,-999,5.0,7.0,52,0.00,,,0.00,0.00,VWS V14.01,2013-04-01 07:57:00,
2013-04-01 02:02:00,39.1,23.0,29.97,North,-999,6.0,6.0,52,0.00,,,0.00,0.00,VWS V14.01,2013-04-01 08:02:00,
2013-04-01 02:07:00,38.8,22.7,29.97,North,-999,5.0,7.0,52,0.00,,,0.00,0.00,VWS V14.01,2013-04-01 08:07:00,
2013-04-01 02:12:00,38.6,22.5,29.97,North,-999,1.0,6.0,52,0.00,,,0.00,0.00,VWS V14.01,2013-04-01 08:12:00,
2013-04-01 02:17:00,38.1,22.0,29.97,North,-999,4.0,6.0,52,0.00,,,0.00,0.00,VWS V14.01,2013-04-01 08:17:00,
2013-04-01 02:22:00,37.1,21.6,29.97,North,-999,5.0,6.0,53,0.00,,,0.00,0.00,VWS V14.01,2013-04-01 08:22:00,
2013-04-01 02:27:00,36.3,21.3,29.97,North,-999,5.0,6.0,54,0.00,,,0.00,0.00,VWS V14.01,2013-04-01 08:27:00,
2013-04-01 02:32:00,36.0,21.8,29.97,North,-999,0.0,9.0,56,0.00,,,0.00,0.00,VWS V14.01,2013-04-01 08:32:00,
2013-04-01 02:37:00,36.0,22.3,29.97,North,-999,0.0,9.0,57,0.00,,,0.00,0.00,VWS V14.01,2013-04-01 08:37:00,
2013-04-01 02:42:00,36.2,22.5,29.97,North,-999,0.0,0.0,57,0.00,,,0.00,0.00,VWS V14.01,2013-04-01 08:42:00,
2013-04-01 02:47:00,36.7,22.9,29.97,North,-999,0.0,0.0,57,0.00,,,0.00,0.00,VWS V14.01,2013-04-01 08:47:00,
2013-04-01 02:52:00,37.3,23.1,29.97,North,-999,2.0,6.0,56,0.00,,,0.00,0.00,VWS V14.01,2013-04-01 08:52:00,
2013-04-01 02:57:00,37.6,22.5,29.97,North,-999,0.0,6.0,54,0.00,,,0.00,0.00,VWS V14.01,2013-04-01 08:57:00,
2013-04-01 03:02:00,37.0,22.4,29.97,North,-999,0.0,0.0,55,0.00,,,0.00,0.00,VWS V14.01,2013-04-01 09:02:00,
2013-04-01 03:07:00,36.6,22.4,29.98,North,-999,0.0,0.0,56,0.00,,,0.00,0.00,VWS V14.01,2013-04-01 09:07:00,
2013-04-01 03:12:00,36.3,22.1,29.98,North,-999,0.0,2.0,56,0.00,,,0.00,0.00,VWS V14.01,2013-04-01 09:12:00,
2013-04-01 03:17:00,36.2,22.5,29.97,North,-999,0.0,2.0,57,0.00,,,0.00,0.00,VWS V14.01,2013-04-01 09:17:00,
2013-04-01 03:22:00,35.7,22.4,29.98,North,-999,0.0,3.0,58,0.00,,,0.00,0.00,VWS V14.01,2013-04-01 09:22:00,
2013-04-01 03:27:00,35.5,22.2,29.98,North,-999,0.0,3.0,58,0.00,,,0.00,0.00,VWS V14.01,2013-04-01 09:27:00,
2013-04-01 03:32:00,35.0,21.7,29.98,North,-999,0.0,0.0,58,0.00,,,0.00,0.00,VWS V14.01,2013-04-01 09:32:00,
2013-04-01 03:37:00,34.3,21.5,29.97,North,-999,0.0,0.0,59,0.00,,,0.00,0.00,VWS V14.01,2013-04-01 09:37:00,
2013-04-01 03:42:00,33.9,21.5,29.98,North,-999,0.0,0.0,60,0.00,,,0.00,0.00,VWS V14.01,2013-04-01 09:42:00,
2013-04-01 03:48:00,33.7,22.1,29.97,North,-999,0.0,0.0,62,0.00,,,0.00,0.00,VWS V14.01,2013-04-01 09:48:00,
2013-04-01 03:53:00,33.8,22.5,29.98,North,-999,0.0,0.0,63,0.00,,,0.00,0.00,VWS V14.01,2013-04-01 09:53:00,
2013-04-01 03:58:00,33.8,22.5,29.97,North,-999,0.0,0.0,63,0.00,,,0.00,0.00,VWS V14.01,2013-04-01 09:58:00,
2013-04-01 04:03:00,33.8,22.2,29.97,North,-999,0.0,0.0,62,0.00,,,0.00,0.00,VWS V14.01,2013-04-01 10:03:00,
2013-04-01 04:08:00,33.7,22.5,29.97,North,-999,0.0,0.0,63,0.00,,,0.00,0.00,VWS V14.01,2013-04-01 10:08:00,
2013-04-01 04:13:00,33.4,22.2,29.97,North,-999,0.0,0.0,63,0.00,,,0.00,0.00,VWS V14.01,2013-04-01 10:13:00,
2013-04-01 04:18:00,32.6,20.7,29.97,North,-999,5.0,5.0,61,0.00,,,0.00,0.00,VWS V14.01,2013-04-01 10:18:00,
2013-04-01 04:23:00,31.6,20.5,29.97,North,-999,4.0,5.0,63,0.00,,,0.00,0.00,VWS V14.01,2013-04-01 10:23:00,
2013-04-01 04:28:00,30.9,20.2,29.97,North,-999,0.0,5.0,64,0.00,,,0.00,0.00,VWS V14.01,2013-04-01 10:28:00,
2013-04-01 04:33:00,30.4,19.7,29.97,North,-999,0.0,0.0,64,0.00,,,0.00,0.00,VWS V14.01,2013-04-01 10:33:00,
2013-04-01 04:38:00,30.0,19.7,29.97,North,-999,0.0,0.0,65,0.00,,,0.00,0.00,VWS V14.01,2013-04-01 10:38:00,
2013-04-01 04:43:00,29.8,19.5,29.97,North,-999,0.0,0.0,65,0.00,,,0.00,0.00,VWS V14.01,2013-04-01 10:43:00,
2013-04-01 04:48:00,29.5,19.2,29.97,North,-999,0.0,0.0,65,0.00,,,0.00,0.00,VWS V14.01,2013-04-01 10:48:00,
2013-04-01 04:53:00,29.6,20.4,29.97,North,-999,0.0,0.0,68,0.00,,,0.00,0.00,VWS V14.01,2013-04-01 10:53:00,
2013-04-01 04:58:00,30.0,20.7,29.97,North,-999,4.0,5.0,68,0.00,,,0.00,0.00,VWS V14.01,2013-04-01 10:58:00,
2013-04-01 05:03:00,29.7,20.1,29.97,North,-999,0.0,4.0,67,0.00,,,0.00,0.00,VWS V14.01,2013-04-01 11:03:00,
2013-04-01 05:08:00,29.2,19.6,29.98,North,-999,0.0,4.0,67,0.00,,,0.00,0.00,VWS V14.01,2013-04-01 11:08:00,
2013-04-01 05:13:00,28.9,19.7,29.98,North,-999,0.0,0.0,68,0.00,,,0.00,0.00,VWS V14.01,2013-04-01 11:13:00,
2013-04-01 05:18:00,28.7,19.5,29.98,North,-999,0.0,0.0,68,0.00,,,0.00,0.00,VWS V14.01,2013-04-01 11:18:00,
2013-04-01 05:23:00,28.6,20.1,29.98,North,-999,0.0,0.0,70,0.00,,,0.00,0.00,VWS V14.01,2013-04-01 11:23:00,
2013-04-01 05:28:00,28.8,19.9,29.98,North,-999,0.0,0.0,69,0.00,,,0.00,0.00,VWS V14.01,2013-04-01 11:28:00,
2013-04-01 05:32:00,29.6,21.4,29.98,North,-999,0.0,0.0,71,0.00,,,0.00,0.00,VWS V14.01,2013-04-01 11:32:00,
2013-04-01 05:37:00,30.2,21.6,29.98,North,-999,0.0,0.0,70,0.00,,,0.00,0.00,VWS V14.01,2013-04-01 11:37:00,
2013-04-01 05:42:00,30.6,22.0,29.98,North,-999,0.0,0.0,70,0.00,,,0.00,0.00,VWS V14.01,2013-04-01 11:42:00,
2013-04-01 05:47:00,30.8,21.9,29.98,North,-999,0.0,0.0,69,0.00,,,0.00,0.00,VWS V14.01,2013-04-01 11:47:00,
2013-04-01 05:52:00,31.0,22.0,29.98,North,-999,0.0,0.0,69,0.00,,,0.00,0.00,VWS V14.01,2013-04-01 11:52:00,
2013-04-01 05:57:00,31.1,21.8,29.98,North,-999,0.0,0.0,68,0.00,,,0.00,0.00,VWS V14.01,2013-04-01 11:57:00,
2013-04-01 06:02:00,31.2,22.2,29.98,North,-999,0.0,0.0,69,0.00,,,0.00,0.00,VWS V14.01,2013-04-01 12:02:00,
2013-04-01 06:07:00,31.3,21.3,29.98,North,-999,5.0,6.0,66,0.00,,,0.00,0.00,VWS V14.01,2013-04-01 12:07:00,
2013-04-01 06:12:00,31.0,21.3,29.99,North,-999,5.0,5.0,67,0.00,,,0.00,0.00,VWS V14.01,2013-04-01 12:12:00,
2013-04-01 06:17:00,30.7,21.4,29.98,North,-999,0.0,5.0,68,0.00,,,0.00,0.00,VWS V14.01,2013-04-01 12:17:00,
2013-04-01 06:23:00,30.3,20.3,29.98,North,-999,0.0,0.0,66,0.00,,,0.00,0.00,VWS V14.01,2013-04-01 12:23:00,
2013-04-01 06:27:00,29.8,20.5,29.98,North,-999,0.0,0.0,68,0.00,,,0.00,0.00,VWS V14.01,2013-04-01 12:27:00,
2013-04-01 06:32:00,29.5,20.6,29.99,North,-999,0.0,0.0,69,0.00,,,0.00,0.00,VWS V14.01,2013-04-01 12:32:00,
2013-04-01 06:37:00,29.6,20.4,29.99,North,-999,0.0,0.0,68,0.00,,,0.00,0.00,VWS V14.01,2013-04-01 12:37:00,
2013-04-01 06:43:00,29.4,20.2,29.99,North,-999,0.0,0.0,68,0.00,,,0.00,0.00,VWS V14.01,2013-04-01 12:43:00,
2013-04-01 06:47:00,29.4,20.2,29.99,North,-999,0.0,0.0,68,0.00,,,0.00,0.00,VWS V14.01,2013-04-01 12:47:00,
2013-04-01 06:53:00,29.1,20.5,29.99,North,-999,4.0,4.0,70,0.00,,,0.00,0.00,VWS V14.01,2013-04-01 12:53:00,
2013-04-01 06:58:00,29.5,20.9,29.99,North,-999,0.0,5.0,70,0.00,,,0.00,5.00,VWS V14.01,2013-04-01 12:58:00,
2013-04-01 07:02:00,29.8,21.9,29.99,North,-999,4.0,5.0,72,0.00,,,0.00,7.00,VWS V14.01,2013-04-01 13:02:00,
2013-04-01 07:07:00,30.9,22.6,29.99,North,-999,0.0,5.0,71,0.00,,,0.00,11.00,VWS V14.01,2013-04-01 13:07:00,
2013-04-01 07:12:00,31.1,22.1,29.99,North,-999,0.0,0.0,69,0.00,,,0.00,14.00,VWS V14.01,2013-04-01 13:12:00,
2013-04-01 07:17:00,30.8,21.9,29.99,North,-999,0.0,0.0,69,0.00,,,0.00,18.00,VWS V14.01,2013-04-01 13:17:00,
2013-04-01 07:22:00,30.7,22.1,29.99,North,-999,0.0,0.0,70,0.00,,,0.00,25.00,VWS V14.01,2013-04-01 13:22:00,
2013-04-01 07:27:00,30.9,22.3,29.99,North,-999,0.0,0.0,70,0.00,,,0.00,33.00,VWS V14.01,2013-04-01 13:27:00,
2013-04-01 07:32:00,31.0,21.7,29.99,North,-999,0.0,0.0,68,0.00,,,0.00,44.00,VWS V14.01,2013-04-01 13:32:00,
2013-04-01 07:37:00,31.0,21.7,30.00,North,-999,0.0,0.0,68,0.00,,,0.00,56.00,VWS V14.01,2013-04-01 13:37:00,
2013-04-01 07:42:00,31.3,22.3,30.00,North,-999,0.0,0.0,69,0.00,,,0.00,70.00,VWS V14.01,2013-04-01 13:42:00,
2013-04-01 07:47:00,31.8,22.5,30.00,North,-999,1.0,3.0,68,0.00,,,0.00,86.00,VWS V14.01,2013-04-01 13:47:00,
2013-04-01 07:52:00,32.1,22.4,30.00,North,-999,0.0,2.0,67,0.00,,,0.00,100.00,VWS V14.01,2013-04-01 13:52:00,
2013-04-01 07:57:00,32.4,22.7,30.00,North,-999,0.0,2.0,67,0.00,,,0.00,118.00,VWS V14.01,2013-04-01 13:57:00,
2013-04-01 08:03:00,32.8,23.1,30.00,North,-999,0.0,0.0,67,0.00,,,0.00,135.00,VWS V14.01,2013-04-01 14:03:00,
2013-04-01 08:08:00,33.8,24.0,30.00,North,-999,5.0,7.0,67,0.00,,,0.00,156.00,VWS V14.01,2013-04-01 14:08:00,
2013-04-01 08:12:00,34.6,24.4,30.00,North,-999,5.0,7.0,66,0.00,,,0.00,174.00,VWS V14.01,2013-04-01 14:12:00,
2013-04-01 08:17:00,35.3,24.7,30.00,North,-999,6.0,9.0,65,0.00,,,0.00,193.00,VWS V14.01,2013-04-01 14:17:00,
2013-04-01 08:22:00,36.0,25.0,30.00,North,-999,3.0,7.0,64,0.00,,,0.00,213.00,VWS V14.01,2013-04-01 14:22:00,
2013-04-01 08:28:00,36.5,25.1,30.00,North,-999,2.0,7.0,63,0.00,,,0.00,227.00,VWS V14.01,2013-04-01 14:28:00,
2013-04-01 08:33:00,37.1,25.3,30.00,North,-999,0.0,2.0,62,0.00,,,0.00,243.00,VWS V14.01,2013-04-01 14:33:00,
2013-04-01 08:38:00,37.6,25.4,30.00,North,-999,0.0,2.0,61,0.00,,,0.00,260.00,VWS V14.01,2013-04-01 14:38:00,
2013-04-01 08:43:00,38.1,25.1,30.00,North,-999,0.0,0.0,59,0.00,,,0.00,274.00,VWS V14.01,2013-04-01 14:43:00,
2013-04-01 08:48:00,38.8,25.3,30.00,North,-999,0.0,0.0,58,0.00,,,0.00,292.00,VWS V14.01,2013-04-01 14:48:00,
2013-04-01 08:53:00,39.6,25.6,30.00,North,-999,0.0,0.0,57,0.00,,,0.00,309.00,VWS V14.01,2013-04-01 14:53:00,
2013-04-01 08:58:00,40.8,25.5,30.00,North,-999,0.0,0.0,54,0.00,,,0.00,325.00,VWS V14.01,2013-04-01 14:58:00,
2013-04-01 09:03:00,42.2,25.9,30.00,North,-999,0.0,0.0,52,0.00,,,0.00,339.00,VWS V14.01,2013-04-01 15:03:00,
2013-04-01 09:08:00,43.5,26.1,30.00,North,-999,0.0,0.0,50,0.00,,,0.00,355.00,VWS V14.01,2013-04-01 15:08:00,
2013-04-01 09:12:00,44.6,25.6,30.00,North,-999,0.0,0.0,47,0.00,,,0.00,373.00,VWS V14.01,2013-04-01 15:12:00,
2013-04-01 09:18:00,45.1,25.6,30.00,North,-999,0.0,0.0,46,0.00,,,0.00,390.00,VWS V14.01,2013-04-01 15:18:00,
2013-04-01 09:23:00,45.4,25.3,30.00,North,-999,0.0,0.0,45,0.00,,,0.00,404.00,VWS V14.01,2013-04-01 15:23:00,
2013-04-01 09:28:00,45.4,25.3,30.00,North,-999,0.0,2.0,45,0.00,,,0.00,422.00,VWS V14.01,2013-04-01 15:28:00,
2013-04-01 09:33:00,45.0,25.0,30.00,North,-999,0.0,0.0,45,0.00,,,0.00,436.00,VWS V14.01,2013-04-01 15:33:00,
2013-04-01 09:38:00,44.8,25.3,29.99,North,-999,0.0,0.0,46,0.00,,,0.00,448.00,VWS V14.01,2013-04-01 15:38:00,
2013-04-01 09:43:00,44.3,25.4,29.99,North,-999,3.0,4.0,47,0.00,,,0.00,464.00,VWS V14.01,2013-04-01 15:43:00,
2013-04-01 09:48:00,44.3,24.8,29.99,North,-999,0.0,5.0,46,0.00,,,0.00,480.00,VWS V14.01,2013-04-01 15:48:00,
2013-04-01 09:53:00,44.9,25.4,29.99,North,-999,0.0,0.0,46,0.00,,,0.00,492.00,VWS V14.01,2013-04-01 15:53:00,
2013-04-01 09:58:00,46.0,25.9,29.99,North,-999,0.0,0.0,45,0.00,,,0.00,506.00,VWS V14.01,2013-04-01 15:58:00,
2013-04-01 10:03:00,46.1,25.4,29.99,North,-999,5.0,5.0,44,0.00,,,0.00,522.00,VWS V14.01,2013-04-01 16:03:00,
2013-04-01 10:08:00,45.6,25.5,29.99,North,-999,0.0,5.0,45,0.00,,,0.00,533.00,VWS V14.01,2013-04-01 16:08:00,
2013-04-01 10:13:00,45.9,25.8,29.99,North,-999,0.0,4.0,45,0.00,,,0.00,547.00,VWS V14.01,2013-04-01 16:13:00,
2013-04-01 10:18:00,46.2,25.5,29.99,North,-999,1.0,4.0,44,0.00,,,0.00,561.00,VWS V14.01,2013-04-01 16:18:00,
2013-04-01 10:23:00,46.9,26.1,29.99,North,-999,0.0,2.0,44,0.00,,,0.00,575.00,VWS V14.01,2013-04-01 16:23:00,
2013-04-01 10:28:00,47.9,26.5,29.99,North,-999,0.0,4.0,43,0.00,,,0.00,587.00,VWS V14.01,2013-04-01 16:28:00,
2013-04-01 10:33:00,48.8,26.2,29.99,North,-999,0.0,3.0,41,0.00,,,0.00,603.00,VWS V14.01,2013-04-01 16:33:00,
2013-04-01 10:38:00,49.6,26.3,29.99,North,-999,0.0,3.0,40,0.00,,,0.00,615.00,VWS V14.01,2013-04-01 16:38:00,
2013-04-01 10:43:00,49.4,25.5,29.99,North,-999,4.0,5.0,39,0.00,,,0.00,629.00,VWS V14.01,2013-04-01 16:43:00,
2013-04-01 10:48:00,48.7,25.5,29.99,North,-999,5.0,5.0,40,0.00,,,0.00,640.00,VWS V14.01,2013-04-01 16:48:00,
2013-04-01 10:53:00,48.3,25.1,29.99,North,-999,0.0,7.0,40,0.00,,,0.00,650.00,VWS V14.01,2013-04-01 16:53:00,
2013-04-01 10:58:00,49.1,25.2,29.99,North,-999,1.0,7.0,39,0.00,,,0.00,659.00,VWS V14.01,2013-04-01 16:58:00,
2013-04-01 11:03:00,48.8,24.3,29.99,North,-999,4.0,10.0,38,0.00,,,0.00,666.00,VWS V14.01,2013-04-01 17:03:00,
2013-04-01 11:08:00,48.3,23.9,29.99,North,-999,0.0,10.0,38,0.00,,,0.00,682.00,VWS V14.01,2013-04-01 17:08:00,
2013-04-01 11:13:00,48.5,24.1,29.99,North,-999,4.0,7.0,38,0.00,,,0.00,693.00,VWS V14.01,2013-04-01 17:13:00,
2013-04-01 11:18:00,48.7,24.2,29.99,North,-999,0.0,8.0,38,0.00,,,0.00,701.00,VWS V14.01,2013-04-01 17:18:00,
2013-04-01 11:23:00,49.2,23.4,29.99,North,-999,4.0,7.0,36,0.00,,,0.00,712.00,VWS V14.01,2013-04-01 17:23:00,
2013-04-01 11:28:00,49.5,23.7,29.99,North,-999,0.0,7.0,36,0.00,,,0.00,719.00,VWS V14.01,2013-04-01 17:28:00,
2013-04-01 11:33:00,50.1,23.5,29.98,North,-999,0.0,6.0,35,0.00,,,0.00,724.00,VWS V14.01,2013-04-01 17:33:00,
2013-04-01 11:38:00,50.1,22.8,29.98,North,-999,0.0,6.0,34,0.00,,,0.00,735.00,VWS V14.01,2013-04-01 17:38:00,
2013-04-01 11:43:00,50.1,22.8,29.98,North,-999,4.0,5.0,34,0.00,,,0.00,744.00,VWS V14.01,2013-04-01 17:43:00,
2013-04-01 11:48:00,50.8,22.8,29.98,North,-999,0.0,6.0,33,0.00,,,0.00,752.00,VWS V14.01,2013-04-01 17:48:00,
2013-04-01 11:53:00,50.6,21.9,29.98,North,-999,7.0,9.0,32,0.00,,,0.00,758.00,VWS V14.01,2013-04-01 17:53:00,
2013-04-01 11:58:00,50.1,22.1,29.98,North,-999,7.0,9.0,33,0.00,,,0.00,765.00,VWS V14.01,2013-04-01 17:58:00,
2013-04-01 12:03:00,49.9,22.7,29.98,North,-999,6.0,9.0,34,0.00,,,0.00,770.00,VWS V14.01,2013-04-01 18:03:00,
2013-04-01 12:08:00,50.3,22.3,29.98,North,-999,0.0,9.0,33,0.00,,,0.00,779.00,VWS V14.01,2013-04-01 18:08:00,
2013-04-01 12:13:00,50.7,21.9,29.98,North,-999,5.0,7.0,32,0.00,,,0.00,788.00,VWS V14.01,2013-04-01 18:13:00,
2013-04-01 12:18:00,50.7,21.9,29.97,North,-999,0.0,9.0,32,0.00,,,0.00,802.00,VWS V14.01,2013-04-01 18:18:00,
2013-04-01 12:23:00,51.1,21.5,29.97,North,-999,5.0,5.0,31,0.00,,,0.00,798.00,VWS V14.01,2013-04-01 18:23:00,
2013-04-01 12:28:00,50.7,21.2,29.98,North,-999,0.0,10.0,31,0.00,,,0.00,800.00,VWS V14.01,2013-04-01 18:28:00,
2013-04-01 12:33:00,50.7,21.2,29.97,North,-999,2.0,5.0,31,0.00,,,0.00,803.00,VWS V14.01,2013-04-01 18:33:00,
2013-04-01 12:38:00,50.7,22.7,29.97,North,-999,0.0,5.0,33,0.00,,,0.00,805.00,VWS V14.01,2013-04-01 18:38:00,
2013-04-01 12:43:00,51.9,21.5,29.97,North,-999,6.0,9.0,30,0.00,,,0.00,810.00,VWS V14.01,2013-04-01 18:43:00,
2013-04-01 12:48:00,52.5,22.0,29.97,North,-999,0.0,9.0,30,0.00,,,0.00,810.00,VWS V14.01,2013-04-01 18:48:00,
2013-04-01 12:53:00,52.4,21.9,29.97,North,-999,0.0,4.0,30,0.00,,,0.00,809.00,VWS V14.01,2013-04-01 18:53:00,
2013-04-01 12:58:00,52.0,21.5,29.97,North,-999,4.0,8.0,30,0.00,,,0.00,812.00,VWS V14.01,2013-04-01 18:58:00,
2013-04-01 13:03:00,52.3,21.8,29.96,North,-999,4.0,6.0,30,0.00,,,0.00,814.00,VWS V14.01,2013-04-01 19:03:00,
2013-04-01 13:08:00,52.0,20.8,29.96,North,-999,0.0,7.0,29,0.00,,,0.00,816.00,VWS V14.01,2013-04-01 19:08:00,
2013-04-01 13:13:00,52.0,21.5,29.96,North,-999,0.0,5.0,30,0.00,,,0.00,817.00,VWS V14.01,2013-04-01 19:13:00,
2013-04-01 13:18:00,52.5,22.0,29.96,North,-999,1.0,6.0,30,0.00,,,0.00,819.00,VWS V14.01,2013-04-01 19:18:00,
2013-04-01 13:23:00,53.3,22.7,29.96,North,-999,2.0,9.0,30,0.00,,,0.00,821.00,VWS V14.01,2013-04-01 19:23:00,
2013-04-01 13:28:00,53.6,21.3,29.96,North,-999,3.0,9.0,28,0.00,,,0.00,821.00,VWS V14.01,2013-04-01 19:28:00,
2013-04-01 13:33:00,53.1,20.9,29.95,North,-999,6.0,10.0,28,0.00,,,0.00,823.00,VWS V14.01,2013-04-01 19:33:00,
2013-04-01 13:38:00,53.0,20.8,29.95,North,-999,7.0,10.0,28,0.00,,,0.00,819.00,VWS V14.01,2013-04-01 19:38:00,
2013-04-01 13:43:00,52.9,20.7,29.95,North,-999,10.0,12.0,28,0.00,,,0.00,817.00,VWS V14.01,2013-04-01 19:43:00,
2013-04-01 13:48:00,52.6,20.4,29.95,North,-999,2.0,12.0,28,0.00,,,0.00,814.00,VWS V14.01,2013-04-01 19:48:00,
2013-04-01 13:53:00,52.6,20.4,29.95,North,-999,5.0,8.0,28,0.00,,,0.00,810.00,VWS V14.01,2013-04-01 19:53:00,
2013-04-01 13:58:00,52.8,21.4,29.95,North,-999,0.0,8.0,29,0.00,,,0.00,807.00,VWS V14.01,2013-04-01 19:58:00,
2013-04-01 14:03:00,53.3,20.2,29.95,North,-999,2.0,11.0,27,0.00,,,0.00,805.00,VWS V14.01,2013-04-01 20:03:00,
2013-04-01 14:08:00,53.4,21.1,29.95,North,-999,3.0,11.0,28,0.00,,,0.00,802.00,VWS V14.01,2013-04-01 20:08:00,
2013-04-01 14:13:00,53.6,20.5,29.94,North,-999,0.0,9.0,27,0.00,,,0.00,800.00,VWS V14.01,2013-04-01 20:13:00,
2013-04-01 14:18:00,54.0,20.8,29.94,North,-999,6.0,11.0,27,0.00,,,0.00,795.00,VWS V14.01,2013-04-01 20:18:00,
2013-04-01 14:23:00,54.1,20.0,29.94,North,-999,5.0,10.0,26,0.00,,,0.00,789.00,VWS V14.01,2013-04-01 20:23:00,
2013-04-01 14:28:00,54.0,20.8,29.94,North,-999,7.0,10.0,27,0.00,,,0.00,782.00,VWS V14.01,2013-04-01 20:28:00,
2013-04-01 14:33:00,54.2,21.0,29.94,North,-999,4.0,9.0,27,0.00,,,0.00,779.00,VWS V14.01,2013-04-01 20:33:00,
2013-04-01 14:38:00,54.3,21.0,29.94,North,-999,7.0,11.0,27,0.00,,,0.00,773.00,VWS V14.01,2013-04-01 20:38:00,
2013-04-01 14:43:00,54.2,21.0,29.94,North,-999,2.0,12.0,27,0.00,,,0.00,766.00,VWS V14.01,2013-04-01 20:43:00,
2013-04-01 14:48:00,54.0,20.8,29.94,North,-999,2.0,12.0,27,0.00,,,0.00,759.00,VWS V14.01,2013-04-01 20:48:00,
2013-04-01 14:53:00,54.5,22.1,29.93,North,-999,0.0,3.0,28,0.00,,,0.00,754.00,VWS V14.01,2013-04-01 20:53:00,
2013-04-01 14:58:00,54.8,21.5,29.93,North,-999,6.0,10.0,27,0.00,,,0.00,745.00,VWS V14.01,2013-04-01 20:58:00,
2013-04-01 15:03:00,54.5,22.1,29.93,North,-999,5.0,7.0,28,0.00,,,0.00,738.00,VWS V14.01,2013-04-01 21:03:00,
2013-04-01 15:08:00,54.9,21.6,29.93,North,-999,4.0,7.0,27,0.00,,,0.00,731.00,VWS V14.01,2013-04-01 21:08:00,
2013-04-01 15:13:00,55.3,21.9,29.93,North,-999,0.0,7.0,27,0.00,,,0.00,722.00,VWS V14.01,2013-04-01 21:13:00,
2013-04-01 15:18:00,55.5,22.1,29.93,North,-999,4.0,7.0,27,0.00,,,0.00,717.00,VWS V14.01,2013-04-01 21:18:00,
2013-04-01 15:23:00,55.5,22.1,29.93,North,-999,4.0,6.0,27,0.00,,,0.00,708.00,VWS V14.01,2013-04-01 21:23:00,
2013-04-01 15:28:00,55.6,22.2,29.93,North,-999,1.0,6.0,27,0.00,,,0.00,701.00,VWS V14.01,2013-04-01 21:28:00,
2013-04-01 15:33:00,55.5,22.1,29.93,North,-999,1.0,5.0,27,0.00,,,0.00,671.00,VWS V14.01,2013-04-01 21:33:00,
2013-04-01 15:38:00,56.2,22.7,29.93,North,-999,1.0,8.0,27,0.00,,,0.00,675.00,VWS V14.01,2013-04-01 21:38:00,
2013-04-01 15:43:00,56.7,22.2,29.92,North,-999,4.0,4.0,26,0.00,,,0.00,664.00,VWS V14.01,2013-04-01 21:43:00,
2013-04-01 15:48:00,56.1,22.6,29.92,North,-999,2.0,9.0,27,0.00,,,0.00,652.00,VWS V14.01,2013-04-01 21:48:00,
2013-04-01 15:53:00,55.7,22.3,29.92,North,-999,0.0,4.0,27,0.00,,,0.00,643.00,VWS V14.01,2013-04-01 21:53:00,
2013-04-01 15:58:00,56.0,22.5,29.92,North,-999,0.0,4.0,27,0.00,,,0.00,631.00,VWS V14.01,2013-04-01 21:58:00,
2013-04-01 16:03:00,56.5,22.9,29.92,North,-999,5.0,10.0,27,0.00,,,0.00,585.00,VWS V14.01,2013-04-01 22:03:00,
2013-04-01 16:08:00,56.2,22.7,29.92,North,-999,5.0,10.0,27,0.00,,,0.00,603.00,VWS V14.01,2013-04-01 22:08:00,
2013-04-01 16:13:00,56.1,22.6,29.92,North,-999,5.0,6.0,27,0.00,,,0.00,582.00,VWS V14.01,2013-04-01 22:13:00,
2013-04-01 16:18:00,55.9,22.4,29.92,North,-999,2.0,7.0,27,0.00,,,0.00,571.00,VWS V14.01,2013-04-01 22:18:00,
2013-04-01 16:23:00,56.1,22.6,29.92,North,-999,4.0,9.0,27,0.00,,,0.00,564.00,VWS V14.01,2013-04-01 22:23:00,
2013-04-01 16:28:00,56.4,22.9,29.92,North,-999,0.0,9.0,27,0.00,,,0.00,548.00,VWS V14.01,2013-04-01 22:28:00,
2013-04-01 16:33:00,56.9,23.3,29.92,North,-999,4.0,10.0,27,0.00,,,0.00,538.00,VWS V14.01,2013-04-01 22:33:00,
2013-04-01 16:38:00,56.4,22.9,29.92,North,-999,3.0,10.0,27,0.00,,,0.00,524.00,VWS V14.01,2013-04-01 22:38:00,
2013-04-01 16:43:00,56.2,23.5,29.91,North,-999,3.0,7.0,28,0.00,,,0.00,510.00,VWS V14.01,2013-04-01 22:43:00,
2013-04-01 16:48:00,56.3,23.6,29.92,North,-999,3.0,7.0,28,0.00,,,0.00,496.00,VWS V14.01,2013-04-01 22:48:00,
2013-04-01 16:53:00,56.0,23.4,29.92,North,-999,0.0,6.0,28,0.00,,,0.00,476.00,VWS V14.01,2013-04-01 22:53:00,
2013-04-01 16:58:00,56.2,23.5,29.92,North,-999,2.0,6.0,28,0.00,,,0.00,466.00,VWS V14.01,2013-04-01 22:58:00,
2013-04-01 17:03:00,56.4,23.7,29.91,North,-999,6.0,7.0,28,0.00,,,0.00,452.00,VWS V14.01,2013-04-01 23:03:00,
2013-04-01 17:08:00,56.2,24.4,29.91,North,-999,6.0,7.0,29,0.00,,,0.00,432.00,VWS V14.01,2013-04-01 23:08:00,
2013-04-01 17:13:00,56.2,23.5,29.92,North,-999,6.0,10.0,28,0.00,,,0.00,420.00,VWS V14.01,2013-04-01 23:13:00,
2013-04-01 17:18:00,56.3,23.6,29.91,North,-999,3.0,13.0,28,0.00,,,0.00,408.00,VWS V14.01,2013-04-01 23:18:00,
2013-04-01 17:23:00,56.2,23.5,29.91,North,-999,4.0,4.0,28,0.00,,,0.00,388.00,VWS V14.01,2013-04-01 23:23:00,
2013-04-01 17:28:00,56.4,23.7,29.91,North,-999,2.0,4.0,28,0.00,,,0.00,378.00,VWS V14.01,2013-04-01 23:28:00,
2013-04-01 17:33:00,56.4,23.7,29.91,North,-999,4.0,7.0,28,0.00,,,0.00,362.00,VWS V14.01,2013-04-01 23:33:00,
2013-04-01 17:38:00,56.3,23.6,29.91,North,-999,0.0,7.0,28,0.00,,,0.00,332.00,VWS V14.01,2013-04-01 23:38:00,
2013-04-01 17:43:00,56.5,23.8,29.91,North,-999,0.0,0.0,28,0.00,,,0.00,330.00,VWS V14.01,2013-04-01 23:43:00,
2013-04-01 17:48:00,57.0,24.2,29.91,North,-999,1.0,5.0,28,0.00,,,0.00,295.00,VWS V14.01,2013-04-01 23:48:00,
2013-04-01 17:53:00,57.2,24.4,29.91,North,-999,3.0,10.0,28,0.00,,,0.00,297.00,VWS V14.01,2013-04-01 23:53:00,
2013-04-01 17:58:00,57.1,24.3,29.91,North,-999,2.0,10.0,28,0.00,,,0.00,274.00,VWS V14.01,2013-04-01 23:58:00,
2013-04-01 18:03:00,57.3,23.6,29.91,North,-999,0.0,3.0,27,0.00,,,0.00,232.00,VWS V14.01,2013-04-02 00:03:00,
2013-04-01 18:08:00,57.8,24.1,29.91,North,-999,0.0,3.0,27,0.00,,,0.00,223.00,VWS V14.01,2013-04-02 00:08:00,
2013-04-01 18:13:00,57.9,23.2,29.91,North,-999,6.0,7.0,26,0.00,,,0.00,192.00,VWS V14.01,2013-04-02 00:13:00,
2013-04-01 18:18:00,56.9,22.4,29.91,North,-999,3.0,7.0,26,0.00,,,0.00,181.00,VWS V14.01,2013-04-02 00:18:00,
2013-04-01 18:23:00,56.4,22.0,29.91,North,-999,2.0,5.0,26,0.00,,,0.00,174.00,VWS V14.01,2013-04-02 00:23:00,
2013-04-01 18:28:00,56.3,22.8,29.91,North,-999,3.0,5.0,27,0.00,,,0.00,153.00,VWS V14.01,2013-04-02 00:28:00,
2013-04-01 18:33:00,56.3,22.8,29.91,North,-999,3.0,4.0,27,0.00,,,0.00,141.00,VWS V14.01,2013-04-02 00:33:00,
2013-04-01 18:38:00,56.2,22.7,29.91,North,-999,0.0,6.0,27,0.00,,,0.00,121.00,VWS V14.01,2013-04-02 00:38:00,
2013-04-01 18:43:00,56.2,22.7,29.91,North,-999,1.0,4.0,27,0.00,,,0.00,107.00,VWS V14.01,2013-04-02 00:43:00,
2013-04-01 18:48:00,56.3,21.9,29.91,North,-999,2.0,6.0,26,0.00,,,0.00,90.00,VWS V14.01,2013-04-02 00:48:00,
2013-04-01 18:53:00,56.1,21.7,29.91,North,-999,2.0,5.0,26,0.00,,,0.00,74.00,VWS V14.01,2013-04-02 00:53:00,
2013-04-01 18:58:00,56.1,21.7,29.91,North,-999,0.0,5.0,26,0.00,,,0.00,58.00,VWS V14.01,2013-04-02 00:58:00,
2013-04-01 19:03:00,56.1,21.7,29.91,North,-999,3.0,4.0,26,0.00,,,0.00,47.00,VWS V14.01,2013-04-02 01:03:00,
2013-04-01 19:08:00,56.0,21.6,29.91,North,-999,0.0,6.0,26,0.00,,,0.00,35.00,VWS V14.01,2013-04-02 01:08:00,
2013-04-01 19:13:00,55.8,22.3,29.91,North,-999,0.0,0.0,27,0.00,,,0.00,25.00,VWS V14.01,2013-04-02 01:13:00,
2013-04-01 19:18:00,55.8,22.3,29.91,North,-999,0.0,0.0,27,0.00,,,0.00,19.00,VWS V14.01,2013-04-02 01:18:00,
2013-04-01 19:23:00,55.7,22.3,29.91,North,-999,0.0,0.0,27,0.00,,,0.00,16.00,VWS V14.01,2013-04-02 01:23:00,
2013-04-01 19:28:00,55.5,22.1,29.91,North,-999,0.0,0.0,27,0.00,,,0.00,14.00,VWS V14.01,2013-04-02 01:28:00,
2013-04-01 19:33:00,55.4,22.0,29.91,North,-999,0.0,0.0,27,0.00,,,0.00,11.00,VWS V14.01,2013-04-02 01:33:00,
2013-04-01 19:38:00,55.2,21.8,29.91,North,-999,0.0,0.0,27,0.00,,,0.00,5.00,VWS V14.01,2013-04-02 01:38:00,
2013-04-01 19:43:00,55.1,21.7,29.91,North,-999,0.0,0.0,27,0.00,,,0.00,0.00,VWS V14.01,2013-04-02 01:43:00,
2013-04-01 19:48:00,54.9,21.6,29.91,North,-999,0.0,0.0,27,0.00,,,0.00,0.00,VWS V14.01,2013-04-02 01:48:00,
2013-04-01 19:53:00,54.6,22.2,29.91,North,-999,0.0,0.0,28,0.00,,,0.00,0.00,VWS V14.01,2013-04-02 01:53:00,
2013-04-01 19:58:00,54.3,21.9,29.91,North,-999,0.0,0.0,28,0.00,,,0.00,0.00,VWS V14.01,2013-04-02 01:58:00,
2013-04-01 20:03:00,54.0,21.6,29.91,North,-999,0.0,0.0,28,0.00,,,0.00,0.00,VWS V14.01,2013-04-02 02:03:00,
2013-04-01 20:08:00,53.7,22.2,29.91,North,-999,0.0,0.0,29,0.00,,,0.00,0.00,VWS V14.01,2013-04-02 02:08:00,
2013-04-01 20:13:00,53.4,22.0,29.91,North,-999,0.0,0.0,29,0.00,,,0.00,0.00,VWS V14.01,2013-04-02 02:13:00,
2013-04-01 20:18:00,52.9,21.5,29.91,North,-999,5.0,10.0,29,0.00,,,0.00,0.00,VWS V14.01,2013-04-02 02:18:00,
2013-04-01 20:23:00,52.2,21.7,29.92,North,-999,3.0,10.0,30,0.00,,,0.00,0.00,VWS V14.01,2013-04-02 02:23:00,
2013-04-01 20:28:00,51.7,22.1,29.92,North,-999,0.0,10.0,31,0.00,,,0.00,0.00,VWS V14.01,2013-04-02 02:28:00,
2013-04-01 20:33:00,51.2,22.4,29.92,North,-999,3.0,4.0,32,0.00,,,0.00,0.00,VWS V14.01,2013-04-02 02:33:00,
2013-04-01 20:38:00,50.7,22.7,29.92,North,-999,1.0,6.0,33,0.00,,,0.00,0.00,VWS V14.01,2013-04-02 02:38:00,
2013-04-01 20:43:00,50.4,22.4,29.92,North,-999,0.0,4.0,33,0.00,,,0.00,0.00,VWS V14.01,2013-04-02 02:43:00,
2013-04-01 20:48:00,49.6,21.0,29.92,North,-999,2.0,5.0,32,0.00,,,0.00,0.00,VWS V14.01,2013-04-02 02:48:00,
2013-04-01 20:53:00,48.4,20.6,29.93,North,-999,2.0,6.0,33,0.00,,,0.00,0.00,VWS V14.01,2013-04-02 02:53:00,
2013-04-01 20:58:00,48.5,22.1,29.93,North,-999,4.0,9.0,35,0.00,,,0.00,0.00,VWS V14.01,2013-04-02 02:58:00,
2013-04-01 21:03:00,48.8,22.4,29.93,North,-999,0.0,4.0,35,0.00,,,0.00,0.00,VWS V14.01,2013-04-02 03:03:00,
2013-04-01 21:08:00,48.8,21.7,29.93,North,-999,0.0,4.0,34,0.00,,,0.00,0.00,VWS V14.01,2013-04-02 03:08:00,
2013-04-01 21:13:00,48.8,22.4,29.94,North,-999,0.0,0.0,35,0.00,,,0.00,0.00,VWS V14.01,2013-04-02 03:13:00,
2013-04-01 21:18:00,48.6,22.2,29.94,North,-999,0.0,0.0,35,0.00,,,0.00,0.00,VWS V14.01,2013-04-02 03:18:00,
2013-04-01 21:23:00,48.5,22.1,29.94,North,-999,0.0,0.0,35,0.00,,,0.00,0.00,VWS V14.01,2013-04-02 03:23:00,
2013-04-01 21:28:00,48.3,21.9,29.94,North,-999,0.0,0.0,35,0.00,,,0.00,0.00,VWS V14.01,2013-04-02 03:28:00,
2013-04-01 21:33:00,48.2,21.9,29.94,North,-999,0.0,0.0,35,0.00,,,0.00,0.00,VWS V14.01,2013-04-02 03:33:00,
2013-04-01 21:38:00,47.8,20.8,29.94,North,-999,0.0,0.0,34,0.00,,,0.00,0.00,VWS V14.01,2013-04-02 03:38:00,
2013-04-01 21:43:00,47.0,20.8,29.94,North,-999,0.0,0.0,35,0.00,,,0.00,0.00,VWS V14.01,2013-04-02 03:43:00,
2013-04-01 21:48:00,46.1,20.6,29.94,North,-999,0.0,0.0,36,0.00,,,0.00,0.00,VWS V14.01,2013-04-02 03:48:00,
2013-04-01 21:53:00,45.6,20.2,29.94,North,-999,0.0,0.0,36,0.00,,,0.00,0.00,VWS V14.01,2013-04-02 03:53:00,
2013-04-01 21:58:00,45.4,20.0,29.94,North,-999,5.0,5.0,36,0.00,,,0.00,0.00,VWS V14.01,2013-04-02 03:58:00,
2013-04-01 22:00:00,45.3,20.6,29.94,North,-999,4.0,5.0,37,0.00,,,0.00,0.00,VWS V14.01,2013-04-02 04:00:00,
2013-04-01 22:05:00,44.1,17.5,29.94,North,-999,5.0,5.0,34,0.00,,,0.00,0.00,VWS V14.01,2013-04-02 04:05:00,
2013-04-01 22:10:00,43.3,20.0,29.94,North,-999,4.0,6.0,39,0.00,,,0.00,0.00,VWS V14.01,2013-04-02 04:10:00,
2013-04-01 22:15:00,43.4,18.9,29.94,North,-999,5.0,6.0,37,0.00,,,0.00,0.00,VWS V14.01,2013-04-02 04:15:00,
2013-04-01 22:20:00,42.2,16.5,29.94,North,-999,5.0,6.0,35,0.00,,,0.00,0.00,VWS V14.01,2013-04-02 04:20:00,
2013-04-01 22:25:00,40.6,16.4,29.94,North,-999,7.0,7.0,37,0.00,,,0.00,0.00,VWS V14.01,2013-04-02 04:25:00,
2013-04-01 22:30:00,40.8,19.5,29.94,North,-999,7.0,8.0,42,0.00,,,0.00,0.00,VWS V14.01,2013-04-02 04:30:00,
2013-04-01 22:35:00,40.9,19.6,29.94,North,-999,6.0,9.0,42,0.00,,,0.00,0.00,VWS V14.01,2013-04-02 04:35:00,
2013-04-01 22:40:00,40.2,17.8,29.94,North,-999,5.0,5.0,40,0.00,,,0.00,0.00,VWS V14.01,2013-04-02 04:40:00,
2013-04-01 22:45:00,39.6,18.4,29.94,North,-999,5.0,6.0,42,0.00,,,0.00,0.00,VWS V14.01,2013-04-02 04:45:00,
2013-04-01 22:50:00,39.8,19.7,29.94,North,-999,7.0,10.0,44,0.00,,,0.00,0.00,VWS V14.01,2013-04-02 04:50:00,
2013-04-01 22:55:00,40.1,19.4,29.94,North,-999,4.0,10.0,43,0.00,,,0.00,0.00,VWS V14.01,2013-04-02 04:55:00,
2013-04-01 23:00:00,39.3,18.1,29.93,North,-999,6.0,7.0,42,0.00,,,0.00,0.00,VWS V14.01,2013-04-02 05:00:00,
2013-04-01 23:05:00,39.2,18.6,29.94,North,-999,5.0,7.0,43,0.00,,,0.00,0.00,VWS V14.01,2013-04-02 05:05:00,
2013-04-01 23:10:00,38.9,18.3,29.94,North,-999,5.0,6.0,43,0.00,,,0.00,0.00,VWS V14.01,2013-04-02 05:10:00,
2013-04-01 23:15:00,38.7,18.7,29.94,North,-999,6.0,6.0,44,0.00,,,0.00,0.00,VWS V14.01,2013-04-02 05:15:00,
2013-04-01 23:20:00,38.6,18.6,29.94,North,-999,5.0,6.0,44,0.00,,,0.00,0.00,VWS V14.01,2013-04-02 05:20:00,
2013-04-01 23:25:00,38.5,19.0,29.94,North,-999,6.0,6.0,45,0.00,,,0.00,0.00,VWS V14.01,2013-04-02 05:25:00,
2013-04-01 23:30:00,38.5,19.0,29.94,North,-999,4.0,6.0,45,0.00,,,0.00,0.00,VWS V14.01,2013-04-02 05:30:00,
2013-04-01 23:35:00,38.4,19.4,29.94,North,-999,5.0,6.0,46,0.00,,,0.00,0.00,VWS V14.01,2013-04-02 05:35:00,
2013-04-01 23:40:00,38.5,19.5,29.94,North,-999,6.0,7.0,46,0.00,,,0.00,0.00,VWS V14.01,2013-04-02 05:40:00,
2013-04-01 23:45:00,38.4,18.9,29.93,North,-999,5.0,7.0,45,0.00,,,0.00,0.00,VWS V14.01,2013-04-02 05:45:00,
2013-04-01 23:50:00,38.2,18.8,29.93,North,-999,3.0,5.0,45,0.00,,,0.00,0.00,VWS V14.01,2013-04-02 05:50:00,
2013-04-01 23:55:00,38.0,18.6,29.94,North,-999,0.0,5.0,45,0.00,,,0.00,0.00,VWS V14.01,2013-04-02 05:55:00,